Location: Bucaritos
(10.0779°N, 67.0369°W)
Time: 04:48:30
(UTC+00:00)

Cosmos 1766 - Pass Details

Date: 27 June 2022
Orbit: 515 x 539 km, 82.5° (Epoch: 18 August)

Event Time Altitude Azimuth Distance (km) Brightness Sun altitude
Rises 23:08:47 0° 7° (N) 2,664 7.1 -4.5°
Reaches altitude 10° 23:11:03 10° 16° (NNE) 1,771 6.0 -5.0°
Maximum altitude 23:14:41 38° 85° (E) 807 3.8 -5.8°
Drops below altitude 10° 23:18:18 10° 154° (SSE) 1,758 5.4 -6.6°
Sets 23:20:31 0° 162° (SSE) 2,641 6.4 -7.1°
